START_TIME,STEP,MOV.,M29,t_acc.,H22,t_acc.,H26,t_acc.,H30,t_acc.
1979-07-17 06:00:31.920 ,1,1,0.,24.0,0.,24.0,0.,24.0,0.,24.0
1979-07-17 06:00:55.920 ,2,1,0.,24.0,0.,24.0,0.,24.0,0.,24.0
1979-07-17 06:01:19.920 ,6,1,0.,24.0,0.,24.0,0.,24.0,0.,24.0
1979-07-17 06:01:43.920 ,5,1,0.,24.0,0.,24.0,0.,24.0,0.,24.0
1979-07-17 06:02:07.920 ,1,1,0.,24.0,0.,24.0,0.,24.0,0.,24.0
1979-07-17 06:02:31.920 ,2,1,0.,24.0,0.,24.0,0.,24.0,0.,24.0
1979-07-17 06:02:55.920 ,6,1,0.,24.0,0.,24.0,0.,24.0,0.,24.0
1979-07-17 06:03:19.920 ,5,1,0.,24.0,0.,24.0,0.,24.0,0.,24.0
1979-07-17 06:03:43.920 ,1,1,0.,24.0,0.,24.0,0.,24.0,0.,24.0
1979-07-17 06:04:07.910 ,2,1,0.,24.0,0.,24.0,0.,24.0,0.,24.0
1979-07-17 06:04:31.920 ,6,1,0.,24.0,0.,24.0,0.,24.0,0.,24.0
1979-07-17 06:04:55.920 ,5,1,0.,24.0,0.,24.0,0.,24.0,0.,24.0
1979-07-17 06:05:19.920 ,1,1,0.,24.0,0.,24.0,0.,24.0,0.,24.0
1979-07-17 06:05:43.920 ,0,0,0.,24.0,0.,24.0,0.,24.0,0.,24.0
1979-07-17 06:06:07.920 ,0,0,0.,24.0,0.,24.0,0.,24.0,0.,24.0
1979-07-17 06:06:31.920 ,5,1,0.,24.0,0.,24.0,0.,24.0,0.,24.0
1979-07-17 06:06:55.920 ,5,0,0.,24.0,0.,24.0,0.,24.0,0.,24.0
1979-07-17 06:07:19.920 ,4,1,0.,24.0,0.,24.0,0.,24.0,0.,24.0
1979-07-17 06:07:43.920 ,4,0,0.,24.0,0.,24.0,0.,24.0,0.,24.0
1979-07-17 06:08:07.920 ,3,1,0.,24.0,0.,24.0,0.,24.0,0.,24.0
1979-07-17 06:08:31.920 ,3,0,0.,24.0,0.,24.0,0.,24.0,0.,24.0
1979-07-17 06:08:55.920 ,2,1,0.,24.0,0.,24.0,0.,24.0,0.,24.0
1979-07-17 06:09:19.920 ,2,0,0.,24.0,0.,24.0,0.,24.0,0.,24.0
1979-07-17 06:09:43.920 ,1,1,0.,24.0,0.,24.0,0.,24.0,0.,24.0
1979-07-17 06:10:07.920 ,1,0,0.,24.0,0.,24.0,0.,24.0,0.,24.0
1979-07-17 06:10:31.920 ,0,1,0.,24.0,0.,24.0,0.,24.0,0.,24.0
1979-07-17 06:10:55.920 ,0,0,0.,24.0,0.,24.0,0.,24.0,0.,24.0
1979-07-17 06:11:19.920 ,0,1,0.,24.0,0.,24.0,0.,24.0,0.,24.0
1979-07-17 06:11:43.920 ,0,0,0.,24.0,0.,24.0,0.,24.0,0.,24.0
1979-07-17 06:12:07.920 ,1,1,0.,24.0,0.,24.0,0.,24.0,0.,24.0
1979-07-17 06:12:31.920 ,1,0,0.,24.0,0.,24.0,0.,24.0,0.,24.0
1979-07-17 06:12:55.920 ,2,1,0.,24.0,0.,24.0,0.,24.0,0.,24.0
1979-07-17 06:13:19.920 ,2,0,0.,24.0,0.,24.0,0.,24.0,0.,24.0
1979-07-17 06:13:43.920 ,3,1,0.,24.0,0.,24.0,0.,24.0,0.,24.0
1979-07-17 06:14:07.920 ,3,0,0.,24.0,0.,24.0,0.,24.0,0.,24.0
1979-07-17 06:14:31.920 ,4,1,0.,24.0,0.,24.0,0.,24.0,0.,24.0
1979-07-17 06:14:55.920 ,4,0,0.,24.0,0.,24.0,0.,24.0,0.,24.0
1979-07-17 06:15:19.920 ,5,1,0.,24.0,0.,24.0,0.,24.0,0.,24.0
1979-07-17 06:15:43.920 ,5,0,0.,24.0,0.,24.0,0.,24.0,0.,24.0
1979-07-17 06:16:07.920 ,6,1,0.,24.0,0.,24.0,0.,24.0,0.,24.0
1979-07-17 06:16:31.920 ,6,0,0.,24.0,0.,24.0,0.,24.0,0.,24.0
1979-07-17 06:16:55.920 ,7,1,0.,24.0,0.,24.0,0.,24.0,0.,24.0
1979-07-17 06:17:19.920 ,7,0,0.,24.0,0.,24.0,0.,24.0,0.,24.0
1979-07-17 06:17:43.920 ,7,1,0.,24.0,0.,24.0,0.,24.0,0.,24.0
1979-07-17 06:18:07.920 ,7,0,0.,24.0,0.,24.0,0.,24.0,0.,24.0
1979-07-17 06:18:31.910 ,6,1,0.,24.0,0.,24.0,0.,24.0,0.,24.0
1979-07-17 06:18:55.910 ,6,0,0.,24.0,0.,24.0,0.,24.0,0.,24.0
1979-07-17 06:19:19.910 ,5,1,0.,24.0,0.,24.0,0.,24.0,0.,24.0
1979-07-17 06:19:43.910 ,5,0,0.,24.0,0.,24.0,0.,24.0,0.,24.0
1979-07-17 06:20:07.910 ,4,1,0.,24.0,0.,24.0,0.,24.0,0.,24.0
1979-07-17 06:20:31.910 ,4,0,0.,24.0,0.,24.0,0.,24.0,0.,24.0
1979-07-17 06:20:55.910 ,3,1,0.,24.0,0.,24.0,0.,24.0,0.,24.0
1979-07-17 06:21:19.910 ,3,0,0.,24.0,0.,24.0,0.,24.0,0.,24.0
1979-07-17 06:21:43.910 ,2,1,0.,24.0,0.,24.0,0.,24.0,0.,24.0
1979-07-17 06:22:07.910 ,2,0,0.,24.0,0.,24.0,0.,24.0,0.,24.0
1979-07-17 06:22:31.910 ,1,1,0.,24.0,0.,24.0,0.,24.0,0.,24.0
1979-07-17 06:22:55.910 ,1,0,0.,24.0,0.,24.0,0.,24.0,0.,24.0
1979-07-17 06:23:19.910 ,0,1,0.,24.0,0.,24.0,0.,24.0,0.,24.0
1979-07-17 06:23:43.910 ,0,0,0.,24.0,0.,24.0,0.,24.0,0.,24.0
1979-07-17 06:24:07.910 ,0,1,0.,24.0,0.,24.0,0.,24.0,0.,24.0
1979-07-17 06:24:31.910 ,0,0,0.,24.0,0.,24.0,0.,24.0,0.,24.0
1979-07-17 06:24:55.910 ,1,1,0.,24.0,0.,24.0,0.,24.0,0.,24.0
1979-07-17 06:25:19.910 ,1,0,0.,24.0,0.,24.0,0.,24.0,0.,24.0
1979-07-17 06:25:43.910 ,2,1,0.,24.0,0.,24.0,0.,24.0,0.,24.0
1979-07-17 06:26:07.910 ,2,0,0.,24.0,0.,24.0,0.,24.0,0.,24.0
1979-07-17 06:26:31.910 ,3,1,0.,24.0,0.,24.0,0.,24.0,0.,24.0
1979-07-17 06:26:55.910 ,3,0,0.,24.0,0.,24.0,0.,24.0,0.,24.0
1979-07-17 06:27:19.910 ,4,1,0.,24.0,0.,24.0,0.,24.0,0.,24.0
1979-07-17 06:27:43.910 ,4,0,0.,24.0,0.,24.0,0.,24.0,0.,24.0
1979-07-17 06:28:07.910 ,5,1,0.,24.0,0.,24.0,0.,24.0,0.,24.0
1979-07-17 06:28:31.910 ,5,0,0.,24.0,0.,24.0,0.,24.0,0.,24.0
1979-07-17 06:28:55.910 ,6,1,0.,24.0,0.,24.0,0.,24.0,0.,24.0
1979-07-17 06:29:19.910 ,6,0,0.,24.0,0.,24.0,0.,24.0,0.,24.0
1979-07-17 06:29:43.910 ,7,1,0.,24.0,0.,24.0,0.,24.0,0.,24.0
1979-07-17 06:30:07.910 ,7,0,0.,24.0,0.,24.0,0.,24.0,0.,24.0
1979-07-17 06:30:31.910 ,7,1,0.,24.0,0.,24.0,0.,24.0,0.,24.0
1979-07-17 06:30:55.910 ,7,0,0.,24.0,0.,24.0,0.,24.0,0.,24.0
1979-07-17 06:31:19.910 ,6,1,0.,24.0,0.,24.0,0.,24.0,0.,24.0
1979-07-17 06:31:43.910 ,6,0,0.,24.0,0.,24.0,0.,24.0,0.,24.0
1979-07-17 06:32:07.910 ,5,1,0.,24.0,0.,24.0,0.,24.0,0.,24.0
1979-07-17 06:32:31.910 ,5,0,0.,24.0,0.,24.0,0.,24.0,0.,24.0
1979-07-17 06:32:55.910 ,4,1,0.,24.0,0.,24.0,0.,24.0,0.,24.0
1979-07-17 06:33:19.910 ,4,0,0.,24.0,0.,24.0,0.,24.0,0.,24.0
1979-07-17 06:33:43.910 ,3,1,0.,24.0,0.,24.0,0.,24.0,0.,24.0
1979-07-17 06:34:07.910 ,3,0,0.,24.0,0.,24.0,0.,24.0,0.,24.0
1979-07-17 06:34:31.910 ,2,1,0.,24.0,0.,24.0,0.,24.0,0.,24.0
1979-07-17 06:34:55.910 ,2,0,0.,24.0,0.,24.0,0.,24.0,0.,24.0
1979-07-17 06:35:19.910 ,1,1,0.,24.0,0.,24.0,0.,24.0,0.,24.0
1979-07-17 06:35:43.910 ,1,0,0.,24.0,0.,24.0,0.,24.0,0.,24.0
1979-07-17 06:36:07.910 ,0,1,0.,24.0,0.,24.0,0.,24.0,0.,24.0
1979-07-17 06:36:31.910 ,0,0,0.,24.0,0.,24.0,0.,24.0,0.,24.0
1979-07-17 06:36:55.910 ,0,1,0.,24.0,0.,24.0,0.,24.0,0.,24.0
1979-07-17 06:37:19.910 ,0,0,0.,24.0,0.,24.0,0.,24.0,0.,24.0
1979-07-17 06:37:43.910 ,1,1,0.,24.0,0.,24.0,0.,24.0,0.,24.0
1979-07-17 06:38:07.910 ,1,0,0.,24.0,0.,24.0,0.,24.0,0.,24.0
1979-07-17 06:38:31.910 ,0,0,,0,,0,,0,,0
1979-07-17 06:38:55.910 ,0,0,,0,,0,,0,,0
1979-07-17 06:38:58.910 ,0,0,0.,24.0,0.,24.0,0.,24.0,0.,24.0
1979-07-17 06:39:19.910 ,3,1,0.,24.0,0.,24.0,0.,24.0,0.,24.0
1979-07-17 06:39:43.910 ,3,0,0.,24.0,0.,24.0,0.,24.0,0.,24.0
1979-07-17 06:40:07.910 ,4,1,0.,24.0,0.,24.0,0.,24.0,0.,24.0
1979-07-17 06:40:31.910 ,4,0,0.,24.0,0.,24.0,0.,24.0,0.,24.0
1979-07-17 06:40:55.910 ,5,1,0.,24.0,0.,24.0,0.,24.0,0.,24.0
1979-07-17 06:41:19.910 ,5,0,0.,24.0,0.,24.0,0.,24.0,0.,24.0
1979-07-17 06:41:43.910 ,6,1,0.,24.0,0.,24.0,0.,24.0,0.,24.0
1979-07-17 06:42:07.910 ,6,0,0.,24.0,0.,24.0,0.,24.0,0.,24.0
1979-07-17 06:42:31.910 ,7,0,0.,24.0,0.,24.0,0.,24.0,0.,24.0
1979-07-17 06:42:55.910 ,7,0,0.,24.0,0.,24.0,0.,24.0,0.,24.0
1979-07-17 06:43:19.910 ,5,1,0.,24.0,0.,24.0,0.,24.0,0.,24.0
1979-07-17 06:43:43.910 ,1,1,0.,24.0,0.,24.0,0.,24.0,0.,24.0
1979-07-17 06:44:07.910 ,2,1,0.,24.0,0.,24.0,0.,24.0,0.,24.0
1979-07-17 06:44:31.910 ,6,1,0.,24.0,0.,24.0,0.,24.0,0.,24.0
1979-07-17 06:44:55.910 ,5,1,0.,24.0,0.,24.0,0.,24.0,0.,24.0
1979-07-17 06:45:19.910 ,1,1,0.,24.0,0.,24.0,0.,24.0,0.,24.0
1979-07-17 06:45:43.910 ,2,1,0.,24.0,0.,24.0,0.,24.0,0.,24.0
1979-07-17 06:46:07.910 ,6,1,0.,24.0,0.,24.0,0.,24.0,0.,24.0
1979-07-17 06:46:31.910 ,5,1,0.,24.0,0.,24.0,0.,24.0,0.,24.0
1979-07-17 06:46:55.910 ,1,1,0.,24.0,0.,24.0,0.,24.0,0.,24.0
1979-07-17 06:47:19.910 ,2,1,0.,24.0,0.,24.0,0.,24.0,0.,24.0
1979-07-17 06:47:43.910 ,6,1,0.,24.0,0.,24.0,0.,24.0,0.,24.0
1979-07-17 06:48:07.910 ,5,1,0.,24.0,0.,24.0,0.,24.0,0.,24.0
1979-07-17 06:48:31.910 ,1,1,0.,24.0,0.,24.0,0.,24.0,0.,24.0
1979-07-17 06:48:55.910 ,2,1,0.,24.0,0.,24.0,0.,24.0,0.,24.0
1979-07-17 06:49:19.910 ,6,1,0.,24.0,0.,24.0,0.,24.0,0.,24.0
1979-07-17 06:49:43.910 ,5,1,0.,24.0,0.,24.0,0.,24.0,0.,24.0
1979-07-17 06:50:07.910 ,1,1,0.,24.0,0.,24.0,0.,24.0,0.,24.0
1979-07-17 06:50:31.910 ,2,1,0.,24.0,0.,24.0,0.,24.0,0.,24.0
1979-07-17 06:50:55.910 ,6,1,0.,24.0,0.,24.0,0.,24.0,0.,24.0
1979-07-17 06:51:19.910 ,5,1,0.,24.0,0.,24.0,0.,24.0,0.,24.0
1979-07-17 06:51:43.910 ,1,1,0.,24.0,0.,24.0,0.,24.0,0.,24.0
1979-07-17 06:52:07.910 ,2,1,0.,24.0,0.,24.0,0.,24.0,0.,24.0
1979-07-17 06:52:31.910 ,6,1,0.,24.0,0.,24.0,0.,24.0,0.,24.0
1979-07-17 06:52:55.910 ,5,1,0.,24.0,0.,24.0,0.,24.0,0.,24.0
1979-07-17 06:53:19.910 ,1,1,0.,24.0,0.,24.0,0.,24.0,0.,24.0
1979-07-17 06:53:43.910 ,0,0,0.,24.0,0.,24.0,0.,24.0,0.,24.0
1979-07-17 06:54:07.910 ,0,0,0.,24.0,0.,24.0,0.,24.0,0.,24.0
1979-07-17 06:54:31.910 ,5,1,0.,24.0,0.,24.0,0.,24.0,0.,24.0
1979-07-17 06:54:55.910 ,5,0,0.,24.0,0.,24.0,0.,24.0,0.,24.0
1979-07-17 06:55:19.910 ,4,1,0.,24.0,0.,24.0,0.,24.0,0.,24.0
1979-07-17 06:55:43.910 ,4,0,0.,24.0,0.,24.0,0.,24.0,0.,24.0
1979-07-17 06:56:07.910 ,3,1,0.,24.0,0.,24.0,0.,24.0,0.,24.0
1979-07-17 06:56:31.910 ,3,0,0.,24.0,0.,24.0,0.,24.0,0.,24.0
1979-07-17 06:56:55.910 ,2,1,0.,24.0,0.,24.0,0.,24.0,0.,24.0
1979-07-17 06:57:19.910 ,2,0,0.,24.0,0.,24.0,0.,24.0,0.,24.0
1979-07-17 06:57:43.910 ,1,1,0.,24.0,0.,24.0,0.,24.0,0.,24.0
1979-07-17 06:58:07.910 ,1,0,0.,24.0,0.,24.0,0.,24.0,0.,24.0
1979-07-17 06:58:31.910 ,0,1,0.,24.0,0.,24.0,0.,24.0,0.,24.0
1979-07-17 06:58:55.910 ,0,0,0.,24.0,0.,24.0,0.,24.0,0.,24.0
1979-07-17 06:59:19.910 ,0,1,0.,24.0,0.,24.0,0.,24.0,0.,24.0
1979-07-17 06:59:43.910 ,0,0,0.,24.0,0.,24.0,0.,24.0,0.,24.0
1979-07-17 07:00:07.910 ,1,1,0.,24.0,0.,24.0,0.,24.0,0.,24.0
1979-07-17 07:00:31.910 ,1,0,0.,24.0,0.,24.0,0.,24.0,0.,24.0
1979-07-17 07:00:55.910 ,2,1,0.,24.0,0.,24.0,0.,24.0,0.,24.0
1979-07-17 07:01:19.910 ,2,0,0.,24.0,0.,24.0,0.,24.0,0.,24.0
1979-07-17 07:01:43.910 ,3,1,0.,24.0,0.,24.0,0.,24.0,0.,24.0
1979-07-17 07:02:07.910 ,3,0,0.,24.0,0.,24.0,0.,24.0,0.,24.0
1979-07-17 07:02:31.910 ,4,1,0.,24.0,0.,24.0,0.,24.0,0.,24.0
1979-07-17 07:02:55.910 ,4,0,0.,24.0,0.,24.0,0.,24.0,0.,24.0
1979-07-17 07:03:19.910 ,5,1,0.,24.0,0.,24.0,0.,24.0,0.,24.0
1979-07-17 07:03:43.910 ,5,0,0.,24.0,0.,24.0,0.,24.0,0.,24.0
1979-07-17 07:04:07.910 ,6,1,0.,24.0,0.,24.0,0.,24.0,0.,24.0
1979-07-17 07:04:31.910 ,6,0,0.,24.0,0.,24.0,0.,24.0,0.,24.0
1979-07-17 07:04:55.910 ,7,1,0.,24.0,0.,24.0,0.,24.0,0.,24.0
1979-07-17 07:05:19.910 ,7,0,0.,24.0,0.,24.0,0.,24.0,0.,24.0
1979-07-17 07:05:43.910 ,7,1,0.,24.0,0.,24.0,0.,24.0,0.,24.0
1979-07-17 07:06:07.910 ,7,0,0.,24.0,0.,24.0,0.,24.0,0.,24.0
1979-07-17 07:06:31.910 ,6,1,0.,24.0,0.,24.0,0.,24.0,0.,24.0
1979-07-17 07:06:55.910 ,6,0,0.,24.0,0.,24.0,0.,24.0,0.,24.0
1979-07-17 07:07:19.910 ,5,1,0.,24.0,0.,24.0,0.,24.0,0.,24.0
1979-07-17 07:07:43.910 ,5,0,0.,24.0,0.,24.0,0.,24.0,0.,24.0
1979-07-17 07:08:07.910 ,4,1,0.,24.0,0.,24.0,0.,24.0,0.,24.0
1979-07-17 07:08:31.910 ,4,0,0.,24.0,0.,24.0,0.,24.0,0.,24.0
1979-07-17 07:08:55.910 ,3,1,0.,24.0,0.,24.0,0.,24.0,0.,24.0
1979-07-17 07:09:19.910 ,0,0,0.,24.0,0.,24.0,0.,24.0,0.,24.0
1979-07-17 07:09:47.510 ,0,0,0.,24.0,0.,24.0,0.,24.0,0.,24.0
1979-07-17 07:10:07.910 ,0,0,0.,24.0,0.,24.0,0.,24.0,0.,24.0
1979-07-17 07:10:31.910 ,1,1,0.,24.0,0.,24.0,0.,24.0,0.,24.0
1979-07-17 07:10:55.910 ,1,0,0.,24.0,0.,24.0,0.,24.0,0.,24.0
1979-07-17 07:11:19.910 ,0,1,0.,24.0,0.,24.0,0.,24.0,0.,24.0
1979-07-17 07:11:43.910 ,0,0,0.,24.0,0.,24.0,0.,24.0,0.,24.0
1979-07-17 07:12:07.910 ,0,1,0.,24.0,0.,24.0,0.,24.0,0.,24.0
1979-07-17 07:12:31.910 ,0,0,0.,24.0,0.,24.0,0.,24.0,0.,24.0
1979-07-17 07:12:55.910 ,1,1,0.,24.0,0.,24.0,0.,24.0,0.,24.0
1979-07-17 07:13:19.910 ,1,0,0.,24.0,0.,24.0,0.,24.0,0.,24.0
1979-07-17 07:13:43.910 ,2,1,0.,24.0,0.,24.0,0.,24.0,0.,24.0
1979-07-17 07:14:07.910 ,2,0,0.,24.0,0.,24.0,0.,24.0,0.,24.0
1979-07-17 07:14:31.910 ,3,1,0.,24.0,0.,24.0,0.,24.0,0.,24.0
1979-07-17 07:14:55.910 ,3,0,0.,24.0,0.,24.0,0.,24.0,0.,24.0
1979-07-17 07:15:19.910 ,4,1,0.,24.0,0.,24.0,0.,24.0,0.,24.0
1979-07-17 07:15:43.910 ,4,0,0.,24.0,0.,24.0,0.,24.0,0.,24.0
1979-07-17 07:16:07.910 ,5,1,0.,24.0,0.,24.0,0.,24.0,0.,24.0
1979-07-17 07:16:31.910 ,5,0,0.,24.0,0.,24.0,0.,24.0,0.,24.0
1979-07-17 07:16:55.910 ,6,1,0.,24.0,0.,24.0,0.,24.0,0.,24.0
1979-07-17 07:17:19.910 ,6,0,0.,24.0,0.,24.0,0.,24.0,0.,24.0
1979-07-17 07:17:43.910 ,7,1,0.,24.0,0.,24.0,0.,24.0,0.,24.0
1979-07-17 07:18:07.910 ,7,0,0.,24.0,0.,24.0,0.,24.0,0.,24.0
1979-07-17 07:18:31.910 ,7,1,0.,24.0,0.,24.0,0.,24.0,0.,24.0
1979-07-17 07:18:55.910 ,7,0,0.,24.0,0.,24.0,0.,24.0,0.,24.0
1979-07-17 07:19:19.910 ,6,1,0.,24.0,0.,24.0,0.,24.0,0.,24.0
1979-07-17 07:19:43.910 ,6,0,0.,24.0,0.,24.0,0.,24.0,0.,24.0
1979-07-17 07:20:07.910 ,5,1,0.,24.0,0.,24.0,0.,24.0,0.,24.0
1979-07-17 07:20:31.910 ,5,0,0.,24.0,0.,24.0,0.,24.0,0.,24.0
1979-07-17 07:20:55.910 ,4,1,0.,24.0,0.,24.0,0.,24.0,0.,24.0
1979-07-17 07:21:19.910 ,4,0,0.,24.0,0.,24.0,0.,24.0,0.,24.0
1979-07-17 07:21:43.910 ,3,1,0.,24.0,0.,24.0,0.,24.0,0.,24.0
1979-07-17 07:22:07.910 ,3,0,0.,24.0,0.,24.0,0.,24.0,0.,24.0
1979-07-17 07:22:31.910 ,2,1,0.,24.0,0.,24.0,0.,24.0,0.,24.0
1979-07-17 07:22:55.910 ,2,0,0.,24.0,0.,24.0,0.,24.0,0.,24.0
1979-07-17 07:23:19.910 ,1,1,0.,24.0,0.,24.0,0.,24.0,0.,24.0
1979-07-17 07:23:43.910 ,1,0,0.,24.0,0.,24.0,0.,24.0,0.,24.0
1979-07-17 07:24:07.910 ,0,1,0.,24.0,0.,24.0,0.,24.0,0.,24.0
1979-07-17 07:24:31.910 ,0,0,0.,24.0,0.,24.0,0.,24.0,0.,24.0
1979-07-17 07:24:55.910 ,0,1,0.,24.0,0.,24.0,0.,24.0,0.,24.0
1979-07-17 07:25:19.910 ,0,0,0.,24.0,0.,24.0,0.,24.0,0.,24.0
1979-07-17 07:25:43.910 ,1,1,0.,24.0,0.,24.0,0.,24.0,0.,24.0
1979-07-17 07:26:07.910 ,1,0,0.,24.0,0.,24.0,0.,24.0,0.,24.0
1979-07-17 07:26:31.910 ,2,1,0.,24.0,0.,24.0,0.,24.0,0.,24.0
1979-07-17 07:26:55.910 ,2,0,0.,24.0,0.,24.0,0.,24.0,0.,24.0
1979-07-17 07:27:19.910 ,3,1,0.,24.0,0.,24.0,0.,24.0,0.,24.0
1979-07-17 07:27:43.910 ,3,0,0.,24.0,0.,24.0,0.,24.0,0.,24.0
1979-07-17 07:28:09.710 ,4,1,0.,24.0,0.,24.0,0.,24.0,0.,24.0
1979-07-17 07:28:31.910 ,4,0,0.,24.0,0.,24.0,0.,24.0,0.,24.0
1979-07-17 07:28:55.910 ,5,1,0.,24.0,0.,24.0,0.,24.0,0.,24.0
1979-07-17 07:29:19.910 ,5,0,0.,24.0,0.,24.0,0.,24.0,0.,24.0
1979-07-17 07:29:43.910 ,6,1,0.,24.0,0.,24.0,0.,24.0,0.,24.0
1979-07-17 07:30:07.910 ,6,0,0.,24.0,0.,24.0,0.,24.0,0.,24.0
1979-07-17 07:30:31.910 ,7,0,0.,24.0,0.,24.0,0.,24.0,0.,24.0
1979-07-17 07:30:55.910 ,7,0,0.,24.0,0.,24.0,0.,24.0,0.,24.0
1979-07-17 07:31:19.910 ,5,1,0.,24.0,0.,24.0,0.,24.0,0.,24.0
1979-07-17 07:31:43.910 ,1,1,0.,24.0,0.,24.0,0.,24.0,0.,24.0
1979-07-17 07:32:07.910 ,2,1,0.,24.0,0.,24.0,0.,24.0,0.,24.0
1979-07-17 07:32:31.910 ,6,1,0.,24.0,0.,24.0,0.,24.0,0.,24.0
1979-07-17 07:32:55.910 ,5,1,0.,24.0,0.,24.0,0.,24.0,0.,24.0
1979-07-17 07:33:19.910 ,1,1,0.,24.0,0.,24.0,0.,24.0,0.,24.0
1979-07-17 07:33:43.910 ,2,1,0.,24.0,0.,24.0,0.,24.0,0.,24.0
1979-07-17 07:34:07.910 ,6,1,0.,24.0,0.,24.0,0.,24.0,0.,24.0
1979-07-17 07:34:31.910 ,5,1,0.,24.0,0.,24.0,0.,24.0,0.,24.0
1979-07-17 07:34:55.910 ,1,1,0.,24.0,0.,24.0,0.,24.0,0.,24.0
1979-07-17 07:35:19.910 ,2,1,0.,24.0,0.,24.0,0.,24.0,0.,24.0
1979-07-17 07:35:43.910 ,6,1,0.,24.0,0.,24.0,0.,24.0,0.,24.0
1979-07-17 07:36:07.910 ,5,1,0.,24.0,0.,24.0,0.,24.0,0.,24.0
1979-07-17 07:36:31.910 ,1,1,0.,24.0,0.,24.0,0.,24.0,0.,24.0
1979-07-17 07:36:55.910 ,2,1,0.,24.0,0.,24.0,0.,24.0,0.,24.0
1979-07-17 07:37:19.910 ,6,1,0.,24.0,0.,24.0,0.,24.0,0.,24.0
1979-07-17 07:37:43.910 ,5,1,0.,24.0,0.,24.0,0.,24.0,0.,24.0
1979-07-17 07:38:07.910 ,1,1,0.,24.0,0.,24.0,0.,24.0,0.,24.0
1979-07-17 07:38:31.910 ,2,1,0.,24.0,0.,24.0,0.,24.0,0.,24.0
1979-07-17 07:38:55.910 ,6,1,0.,24.0,0.,24.0,0.,24.0,0.,24.0
1979-07-17 07:39:19.910 ,5,1,0.,24.0,0.,24.0,0.,24.0,0.,24.0
1979-07-17 07:39:43.910 ,1,1,0.,24.0,0.,24.0,0.,24.0,0.,24.0
1979-07-17 07:40:07.910 ,2,1,0.,24.0,0.,24.0,0.,24.0,0.,24.0
1979-07-17 07:40:31.910 ,6,1,0.,24.0,0.,24.0,0.,24.0,0.,24.0
1979-07-17 07:40:55.910 ,5,1,0.,24.0,0.,24.0,0.,24.0,0.,24.0
1979-07-17 07:41:19.910 ,1,1,0.,24.0,0.,24.0,0.,24.0,0.,24.0
1979-07-17 07:41:43.910 ,0,0,0.,24.0,0.,24.0,0.,24.0,0.,24.0
1979-07-17 07:42:07.910 ,0,0,0.,24.0,0.,24.0,0.,24.0,0.,24.0
1979-07-17 07:42:31.910 ,5,1,0.,24.0,0.,24.0,0.,24.0,0.,24.0
1979-07-17 07:42:55.910 ,5,0,0.,24.0,0.,24.0,0.,24.0,0.,24.0
1979-07-17 07:43:19.910 ,4,1,0.,24.0,0.,24.0,0.,24.0,0.,24.0
1979-07-17 07:43:43.910 ,4,0,0.,24.0,0.,24.0,0.,24.0,0.,24.0
1979-07-17 07:44:07.910 ,3,1,0.,24.0,0.,24.0,0.,24.0,0.,24.0
1979-07-17 07:44:31.910 ,3,0,0.,24.0,0.,24.0,0.,24.0,0.,24.0
1979-07-17 07:44:55.910 ,2,1,0.,24.0,0.,24.0,0.,24.0,0.,24.0
1979-07-17 07:45:19.910 ,2,0,0.,24.0,0.,24.0,0.,24.0,0.,24.0
1979-07-17 07:45:43.910 ,1,1,0.,24.0,0.,24.0,0.,24.0,0.,24.0
1979-07-17 07:46:07.910 ,1,0,0.,24.0,0.,24.0,0.,24.0,0.,24.0
1979-07-17 07:46:31.910 ,0,1,0.,24.0,0.,24.0,0.,24.0,0.,24.0
1979-07-17 07:46:55.910 ,0,0,0.,24.0,0.,24.0,0.,24.0,0.,24.0
1979-07-17 07:47:19.910 ,0,1,0.,24.0,0.,24.0,0.,24.0,0.,24.0
1979-07-17 07:47:43.910 ,0,0,0.,24.0,0.,24.0,0.,24.0,0.,24.0
1979-07-17 07:48:07.910 ,1,1,0.,24.0,0.,24.0,0.,24.0,0.,24.0
1979-07-17 07:48:31.910 ,1,0,0.,24.0,0.,24.0,0.,24.0,0.,24.0
1979-07-17 07:48:55.910 ,2,1,0.,24.0,0.,24.0,0.,24.0,0.,24.0
1979-07-17 07:49:19.910 ,2,0,0.,24.0,0.,24.0,0.,24.0,0.,24.0
1979-07-17 07:49:43.910 ,3,1,0.,24.0,0.,24.0,0.,24.0,0.,24.0
1979-07-17 07:50:07.910 ,3,0,0.,24.0,0.,24.0,0.,24.0,0.,24.0
1979-07-17 07:50:31.910 ,4,1,0.,24.0,0.,24.0,0.,24.0,0.,24.0
1979-07-17 07:50:55.910 ,4,0,0.,24.0,0.,24.0,0.,24.0,0.,24.0
1979-07-17 07:51:19.910 ,5,1,0.,24.0,0.,24.0,0.,24.0,0.,24.0
1979-07-17 07:51:43.910 ,5,0,0.,24.0,0.,24.0,0.,24.0,0.,24.0
1979-07-17 07:52:07.910 ,6,1,0.,24.0,0.,24.0,0.,24.0,0.,24.0
1979-07-17 07:52:31.910 ,6,0,0.,24.0,0.,24.0,0.,24.0,0.,24.0
1979-07-17 07:52:55.910 ,7,1,0.,24.0,0.,24.0,0.,24.0,0.,24.0
1979-07-17 07:53:19.910 ,7,0,0.,24.0,0.,24.0,0.,24.0,0.,24.0
1979-07-17 07:53:43.910 ,7,1,0.,24.0,0.,24.0,0.,24.0,0.,24.0
1979-07-17 07:54:07.910 ,7,0,0.,24.0,0.,24.0,0.,24.0,0.,24.0
1979-07-17 07:54:31.910 ,6,1,0.,24.0,0.,24.0,0.,24.0,0.,24.0
1979-07-17 07:54:55.910 ,6,0,0.,24.0,0.,24.0,0.,24.0,0.,24.0
1979-07-17 07:55:19.910 ,5,1,0.,24.0,0.,24.0,0.,24.0,0.,24.0
1979-07-17 07:55:43.910 ,5,0,0.,24.0,0.,24.0,0.,24.0,0.,24.0
1979-07-17 07:56:07.910 ,4,1,0.,24.0,0.,24.0,0.,24.0,0.,24.0
1979-07-17 07:56:31.910 ,4,0,0.,24.0,0.,24.0,0.,24.0,0.,24.0
1979-07-17 07:56:55.910 ,3,1,0.,24.0,0.,24.0,0.,24.0,0.,24.0
1979-07-17 07:57:19.910 ,3,0,0.,24.0,0.,24.0,0.,24.0,0.,24.0
1979-07-17 07:57:43.910 ,2,1,0.,24.0,0.,24.0,0.,24.0,0.,24.0
1979-07-17 07:58:07.910 ,2,0,0.,24.0,0.,24.0,0.,24.0,0.,24.0
1979-07-17 07:58:31.910 ,1,1,0.,24.0,0.,24.0,0.,24.0,0.,24.0
1979-07-17 07:58:55.910 ,1,0,0.,24.0,0.,24.0,0.,24.0,0.,24.0
1979-07-17 07:59:19.910 ,0,1,0.,24.0,0.,24.0,0.,24.0,0.,24.0
1979-07-17 07:59:43.910 ,0,0,0.,24.0,0.,24.0,0.,24.0,0.,24.0
1979-07-17 08:00:07.910 ,0,1,0.,24.0,0.,24.0,0.,24.0,0.,24.0
1979-07-17 08:00:31.910 ,0,0,0.,24.0,0.,24.0,0.,24.0,0.,24.0
1979-07-17 08:00:55.910 ,1,1,0.,24.0,0.,24.0,0.,24.0,0.,24.0
1979-07-17 08:01:19.910 ,1,0,0.,24.0,0.,24.0,0.,24.0,0.,24.0
1979-07-17 08:01:43.910 ,2,1,0.,24.0,0.,24.0,0.,24.0,0.,24.0
1979-07-17 08:02:07.910 ,2,0,0.,24.0,0.,24.0,0.,24.0,0.,24.0
1979-07-17 08:02:31.910 ,3,1,0.,24.0,0.,24.0,0.,24.0,0.,24.0
1979-07-17 08:02:55.910 ,3,0,0.,24.0,0.,24.0,0.,24.0,0.,24.0
1979-07-17 08:03:19.910 ,4,1,0.,24.0,0.,24.0,0.,24.0,0.,24.0
1979-07-17 08:03:43.910 ,4,0,0.,24.0,0.,24.0,0.,24.0,0.,24.0
1979-07-17 08:04:07.910 ,5,1,0.,24.0,0.,24.0,0.,24.0,0.,24.0
1979-07-17 08:04:31.910 ,5,0,0.,24.0,0.,24.0,0.,24.0,0.,24.0
1979-07-17 08:04:55.910 ,6,1,0.,24.0,0.,24.0,0.,24.0,0.,24.0
1979-07-17 08:05:19.910 ,6,0,0.,24.0,0.,24.0,0.,24.0,0.,24.0
1979-07-17 08:05:43.910 ,7,1,0.,24.0,0.,24.0,0.,24.0,0.,24.0
1979-07-17 08:06:07.910 ,7,0,0.,24.0,0.,24.0,0.,24.0,0.,24.0
1979-07-17 08:06:33.710 ,7,1,0.,24.0,0.,24.0,0.,24.0,0.,24.0
1979-07-17 08:06:55.910 ,7,0,0.,24.0,0.,24.0,0.,24.0,0.,24.0
1979-07-17 08:07:19.910 ,6,1,0.,24.0,0.,24.0,0.,24.0,0.,24.0
1979-07-17 08:07:43.910 ,6,0,0.,24.0,0.,24.0,0.,24.0,0.,24.0
1979-07-17 08:08:07.910 ,5,1,0.,24.0,0.,24.0,0.,24.0,0.,24.0
1979-07-17 08:08:31.910 ,5,0,0.,24.0,0.,24.0,0.,24.0,0.,24.0
1979-07-17 08:08:55.910 ,4,1,0.,24.0,0.,24.0,0.,24.0,0.,24.0
1979-07-17 08:09:19.910 ,4,0,0.,24.0,0.,24.0,0.,24.0,0.,24.0
1979-07-17 08:09:43.910 ,3,1,0.,24.0,0.,24.0,0.,24.0,0.,24.0
1979-07-17 08:10:07.910 ,3,0,0.,24.0,0.,24.0,0.,24.0,0.,24.0
1979-07-17 08:10:31.910 ,2,1,0.,24.0,0.,24.0,0.,24.0,0.,24.0
1979-07-17 08:10:55.910 ,2,0,0.,24.0,0.,24.0,0.,24.0,0.,24.0
1979-07-17 08:11:19.910 ,1,1,0.,24.0,0.,24.0,0.,24.0,0.,24.0
1979-07-17 08:11:43.910 ,1,0,0.,24.0,0.,24.0,0.,24.0,0.,24.0
1979-07-17 08:12:07.910 ,0,1,0.,24.0,0.,24.0,0.,24.0,0.,24.0
1979-07-17 08:12:31.910 ,0,0,0.,24.0,0.,24.0,0.,24.0,0.,24.0
1979-07-17 08:12:55.910 ,0,1,0.,24.0,0.,24.0,0.,24.0,0.,24.0
1979-07-17 08:13:19.910 ,0,0,0.,24.0,0.,24.0,0.,24.0,0.,24.0
1979-07-17 08:13:43.910 ,1,1,0.,24.0,0.,24.0,0.,24.0,0.,24.0
1979-07-17 08:14:07.910 ,1,0,0.,24.0,0.,24.0,0.,24.0,0.,24.0
1979-07-17 08:14:31.910 ,2,1,0.,24.0,0.,24.0,0.,24.0,0.,24.0
1979-07-17 08:14:55.910 ,2,0,0.,24.0,0.,24.0,0.,24.0,0.,24.0
1979-07-17 08:15:19.910 ,3,1,0.,24.0,0.,24.0,0.,24.0,0.,24.0
1979-07-17 08:15:43.910 ,3,0,0.,24.0,0.,24.0,0.,24.0,0.,24.0
1979-07-17 08:16:07.910 ,4,1,0.,24.0,0.,24.0,0.,24.0,0.,24.0
1979-07-17 08:16:31.910 ,4,0,0.,24.0,0.,24.0,0.,24.0,0.,24.0
1979-07-17 08:16:55.910 ,5,1,0.,24.0,0.,24.0,0.,24.0,0.,24.0
1979-07-17 08:17:19.910 ,5,0,0.,24.0,0.,24.0,0.,24.0,0.,24.0
1979-07-17 08:17:43.910 ,6,1,0.,24.0,0.,24.0,0.,24.0,0.,24.0
1979-07-17 08:18:07.910 ,6,0,0.,24.0,0.,24.0,0.,24.0,0.,24.0
1979-07-17 08:18:07.910 ,0,0,0.,24.0,0.,24.0,0.,24.0,0.,24.0
1979-07-17 08:18:31.910 ,7,0,0.,24.0,0.,24.0,0.,24.0,0.,24.0
1979-07-17 08:18:55.910 ,7,0,,0,,0,,0,,0
1979-07-17 08:19:19.910 ,5,1,,0,,0,,0,,0
1979-07-17 08:19:43.910 ,0,0,0.,24.0,0.,24.0,0.,24.0,0.,24.0
1979-07-17 08:20:08.510 ,0,0,0.,24.0,0.,24.0,0.,24.0,0.,24.0
1979-07-17 08:20:31.910 ,6,1,0.,24.0,0.,24.0,0.,24.0,0.,24.0
1979-07-17 08:20:55.910 ,5,1,0.,24.0,0.,24.0,0.,24.0,0.,24.0
1979-07-17 08:21:19.910 ,1,1,0.,24.0,0.,24.0,0.,24.0,0.,24.0
1979-07-17 08:21:43.910 ,2,1,0.,24.0,0.,24.0,0.,24.0,0.,24.0
1979-07-17 08:22:07.910 ,6,1,0.,24.0,0.,24.0,0.,24.0,0.,24.0
1979-07-17 08:22:31.910 ,5,1,0.,24.0,0.,24.0,0.,24.0,0.,24.0
1979-07-17 08:22:55.910 ,1,1,0.,24.0,0.,24.0,0.,24.0,0.,24.0
1979-07-17 08:23:19.910 ,2,1,0.,24.0,0.,24.0,0.,24.0,0.,24.0
1979-07-17 08:23:43.910 ,6,1,0.,24.0,0.,24.0,0.,24.0,0.,24.0
1979-07-17 08:24:07.910 ,5,1,0.,24.0,0.,24.0,0.,24.0,0.,24.0
1979-07-17 08:24:31.910 ,1,1,0.,24.0,0.,24.0,0.,24.0,0.,24.0
1979-07-17 08:24:55.910 ,2,1,0.,24.0,0.,24.0,0.,24.0,0.,24.0
1979-07-17 08:25:19.910 ,6,1,0.,24.0,0.,24.0,0.,24.0,0.,24.0
1979-07-17 08:25:43.910 ,5,1,0.,24.0,0.,24.0,0.,24.0,0.,24.0
1979-07-17 08:26:07.910 ,1,1,0.,24.0,0.,24.0,0.,24.0,0.,24.0
1979-07-17 08:26:31.910 ,2,1,0.,24.0,0.,24.0,0.,24.0,0.,24.0
1979-07-17 08:26:55.910 ,6,1,0.,24.0,0.,24.0,0.,24.0,0.,24.0
1979-07-17 08:27:19.910 ,5,1,0.,24.0,0.,24.0,0.,24.0,0.,24.0
1979-07-17 08:27:43.910 ,1,1,0.,24.0,0.,24.0,0.,24.0,0.,24.0
1979-07-17 08:28:07.910 ,2,1,0.,24.0,0.,24.0,0.,24.0,0.,24.0
1979-07-17 08:28:31.910 ,6,1,0.,24.0,0.,24.0,0.,24.0,0.,24.0
1979-07-17 08:28:55.910 ,5,1,0.,24.0,0.,24.0,0.,24.0,0.,24.0
1979-07-17 08:29:19.910 ,1,1,0.,24.0,0.,24.0,0.,24.0,0.,24.0
1979-07-17 08:29:43.910 ,0,0,0.,24.0,0.,24.0,0.,24.0,0.,24.0
1979-07-17 08:30:07.910 ,0,0,0.,24.0,0.,24.0,0.,24.0,0.,24.0
1979-07-17 08:30:31.910 ,5,1,0.,24.0,0.,24.0,0.,24.0,0.,24.0
1979-07-17 08:30:55.910 ,5,0,0.,24.0,0.,24.0,0.,24.0,0.,24.0
1979-07-17 08:31:19.910 ,4,1,0.,24.0,0.,24.0,0.,24.0,0.,24.0
1979-07-17 08:31:43.910 ,4,0,0.,24.0,0.,24.0,0.,24.0,0.,24.0
1979-07-17 08:32:07.910 ,0,0,0.,24.0,0.,24.0,0.,24.0,0.,24.0
1979-07-17 08:32:31.910 ,0,0,0.,24.0,0.,24.0,0.,24.0,0.,24.0
1979-07-17 08:32:55.910 ,2,1,0.,24.0,0.,24.0,0.,24.0,0.,24.0
1979-07-17 08:33:19.910 ,2,0,0.,24.0,0.,24.0,0.,24.0,0.,24.0
1979-07-17 08:33:43.910 ,1,1,0.,24.0,0.,24.0,0.,24.0,0.,24.0
1979-07-17 08:34:07.910 ,1,0,0.,24.0,0.,24.0,0.,24.0,0.,24.0